Regional Weather Roundup
Issued by NWS Little Rock, AR

Home | Current Version | Previous Version | Text Only | Print | Product List | Glossary On
Versions: 1 2 3 4 5 6 7 8 9 10 11 12 13 14 15 16 17 18 19 20 21 22 23 24 25 26 27
000
ASUS44 KLZK 290705
RWRLZK

WEATHER ROUNDUP FOR ARKANSAS
NATIONAL WEATHER SERVICE LITTLE ROCK AR
200 AM CDT SUN MAY 29 2016

NOTE: "FAIR" INDICATES FEW OR NO CLOUDS BELOW 12,000 FEET WITH NO
SIGNIFICANT WEATHER AND/OR OBSTRUCTIONS TO VISIBILITY.

ARZ001-003-010-029-290800-
NORTHWEST ARKANSAS

CITY           SKY/WX    TMP DP  RH WIND       PRES   REMARKS
FAYETTEVILLE   PTCLDY    63  63 100 CALM      30.08S
FORT SMITH     CLEAR     68  64  87 E3        30.05R
HARRISON       MOCLDY    66  65  96 W3        30.08S
BENTONVILLE    MOCLDY    64  61  88 CALM      30.08F
ROGERS           N/A     66  64  93 SE3       30.09S
SILOAM SPGS    MOCLDY    64  55  72 E3        30.09R
HIGHFILL       MOCLDY    64  63  96 CALM      30.08R
$$

ARZ004-005-016-290800-
NORTH CENTRAL ARKANSAS

CITY           SKY/WX    TMP DP  RH WIND       PRES   REMARKS
BATESVILLE     PTCLDY    66  64  94 CALM      30.05S
FLIPPIN        PTCLDY   N/A N/A N/A CALM      30.02S
MTN HOME       CLEAR     66  65  96 CALM      30.04F
$$

ARZ040-041-290800-
WEST CENTRAL ARKANSAS

CITY           SKY/WX    TMP DP  RH WIND       PRES   REMARKS
MENA           PTCLDY    66  64  94 CALM      30.08S
MOUNT IDA      CLEAR     64  62  93 CALM      30.05R FOG
$$

ARZ009-017-025-026-028-290800-
NORTHEAST ARKANSAS

CITY           SKY/WX    TMP DP  RH WIND       PRES   REMARKS
CORNING          N/A     70  70 100 CALM      30.04F
JONESBORO      CLEAR     69  67  93 CALM      30.04S
NEWPORT        CLEAR     70  70 100 W3        30.05S
WALNUT RIDGE   CLEAR     70  64  83 CALM      30.04S
BLYTHEVILLE    CLEAR     71  67  87 SW5       30.05R
$$

ARZ022-023-033-042-044-290800-
CENTRAL ARKANSAS

CITY           SKY/WX    TMP DP  RH WIND       PRES   REMARKS
LITTLE ROCK    CLEAR     71  67  87 W7        30.04F
N LITTLE ROCK    N/A     70  67  92 CALM      30.02F
JACKSONVILLE   PTCLDY    66  65  99 W3        30.03F
SEARCY         FOG       65  65 100 CALM      30.05F VSB 1/2
HOT SPRINGS    CLEAR     67  65  93 CALM      30.07S
RUSSELLVILLE   CLEAR     67  66  97 CALM      30.05S
CLINTON        FAIR      63  63 100 CALM      30.06F
$$

ARZ036-290800-
EAST ARKANSAS

CITY           SKY/WX    TMP DP  RH WIND       PRES   REMARKS
WEST MEMPHIS   CLEAR     70  68  93 S5        30.03S
$$

ARZ050-053-066-070-073-290800-
SOUTHWEST ARKANSAS

CITY           SKY/WX    TMP DP  RH WIND       PRES   REMARKS
ARKADELPHIA    FOG       64  64 100 CALM      30.06R VSB 1/4
CAMDEN         FOG       64  63  94 CALM      30.05R VSB 1/4
TEXARKANA      CLOUDY    69  67  93 NE5       30.04S FOG
EL DORADO      CLEAR     66  66 100 CALM      30.04S FOG
DE QUEEN       CLOUDY    66  66 100 CALM      30.04R FOG
$$

ARZ056-057-069-290800-
SOUTHEAST ARKANSAS

CITY           SKY/WX    TMP DP  RH WIND       PRES   REMARKS
PINE BLUFF     CLEAR     69  67  93 CALM      30.03F
STUTTGART      CLEAR     72  64  78 S5        30.04F
MONTICELLO     CLEAR     69  67  93 CALM      30.03F

$$






USA.gov is the U.S. government's official web portal to all federal, state and local government web resources and services.